Home > Weather > Andernach > Past weeks

Flag for Germany Weather for the Past 2 Weeks in Andernach, Rhineland-Palatinate, Germany

Now
41 °F

Quite cool.


Feels Like: 35 °F
Forecast: 42 / 58 °F
Wind: 9 mph from North

Location: Buechel

Current Time: Apr 30, 2016 at 5:05:57 PM

Latest Report: Apr 30, 2016 at 4:20 PM


Visibility: 4 mi

Pressure: 30.04 "Hg

Humidity: 93%

Dew Point: 39 °F

Location of AndernachLocation

Historic Weather in Andernach — Graph

°F

Andernach Temperature Yesterday

Maximum temperature yesterday: 48 °F (at 2:20 PM)
Minimum temperature yesterday: 32 °F (at 3:20 AM)
Average temperature yesterday: 41 °F

High & Low Weather Summary for the Past Weeks

 TemperatureHumidityPressure
High64 °F (Apr 21, 5:20 PM)100% (Apr 17, 1:20 AM)30.42 "Hg (Apr 17, 1:20 AM)
Low28 °F (Apr 25, 4:20 AM)32% (Apr 21, 5:20 PM)29.53 "Hg (Apr 16, 5:20 AM)
Average42 °F73%29.93 "Hg
* Reported Apr 15 3:20 PM — Apr 30 3:20 PM, Andernach, Weather by CustomWeather, © 2016

Note: Actual official high and low records may vary slightly from our data, if they occured in-between our weather recording intervals... More about our weather records

Advertising

Andernach Weather History for the Previous 24 Hours

Scroll right to see more
 ConditionsComfort  
Time TempWeatherWind HumidityBarometerVisibility
3:20 PM
Sat, Apr 30
41 °FQuite cool.9 mph100%30.04 "Hg2 mi
2:20 PM43 °FQuite cool.10 mph87%30.01 "Hg3 mi
1:20 PM46 °FCool.10 mph82%30.01 "HgN/A
12:20 PM48 °FCool.6 mph71%30.01 "HgN/A
11:20 AM48 °FCool.3 mph71%30.01 "HgN/A
10:20 AM45 °FQuite cool.3 mph81%30.01 "HgN/A
9:20 AM41 °FQuite cool.3 mph81%30.01 "HgN/A
8:20 AM41 °FQuite cool.5 mph76%30.01 "HgN/A
7:20 AM41 °FQuite cool.3 mph70%29.98 "HgN/A
6:20 AM41 °FQuite cool.7 mph70%29.98 "HgN/A
5:20 AM39 °FChilly.6 mph75%29.98 "HgN/A
4:20 AM41 °FQuite cool.6 mph66%29.98 "HgN/A
3:20 AM41 °FQuite cool.6 mph70%29.98 "HgN/A
2:20 AM41 °FQuite cool.9 mph70%29.98 "HgN/A
1:20 AM43 °FQuite cool.8 mph66%29.98 "HgN/A
12:20 AM43 °FQuite cool.8 mph66%29.98 "HgN/A
11:20 PM
Fri, Apr 29
43 °FQuite cool.8 mph61%29.98 "HgN/A
10:20 PM43 °FQuite cool.8 mph61%30.01 "HgN/A
9:20 PM43 °FQuite cool.6 mph66%30.01 "HgN/A
8:20 PM45 °FQuite cool.10 mph61%29.98 "HgN/A
7:20 PM48 °FCool.15 mph50%29.98 "HgN/A
6:20 PM48 °FCool.16 mph50%29.98 "HgN/A
5:20 PM48 °FCool.14 mph50%29.98 "HgN/A
Weather by CustomWeather, © 2016

See weather overviewHow to use our weather pages